Location: Newark
(35.4661°N, 76.7814°E)
Time: 03:18:20
(UTC+00:00)

N. Korean satellite - Visible Passes

Search period start: 21 November 2019 00:00
Search period end: 01 December 2019 00:00
Orbit: 456 x 506 km, 97.2° (Epoch: 20 November)

Date Brightness Start Highest point End Pass type
(mag) Time Alt. Az. Time Alt. Az. Time Alt. Az.
21 Nov 6.8 00:37:52 10° NNE 00:41:34 74° E 00:45:10 10° S visible
21 Nov 9.3 12:43:56 10° SSW 12:46:53 23° W 12:49:54 10° NW visible
22 Nov 8.6 00:12:49 10° NNE 00:16:08 31° E 00:19:23 10° SSE visible
22 Nov 7.6 12:17:52 10° S 12:21:25 53° W 12:25:03 10° NNW visible
22 Nov 9.9 23:48:30 10° ENE 23:50:36 15° E 23:52:41 10° SE visible
24 Nov 6.6 00:55:06 10° N 00:58:43 60° WNW 01:02:15 10° SSW visible
24 Nov 10.0 13:02:09 10° SW 13:04:11 14° W 13:06:13 10° WNW visible
25 Nov 7.3 00:29:44 10° NNE 00:33:20 56° E 00:36:52 10° S visible
25 Nov 8.8 12:35:24 10° SSW 12:38:39 30° W 12:41:56 10° NW visible
26 Nov 9.1 00:04:51 10° NE 00:07:53 24° E 00:10:50 10° SSE visible
26 Nov 7.0 12:09:34 10° S 12:13:12 70° W 12:16:54 10° NNW visible
26 Nov 10.1 23:41:07 10° ENE 23:42:18 11° E 23:43:28 10° ESE visible
28 Nov 6.5 00:46:51 10° N 00:50:29 80° WNW 00:54:02 10° SSW visible
28 Nov 9.8 12:53:18 10° SW 12:55:53 18° W 12:58:30 10° NW visible
29 Nov 7.9 00:21:37 10° NNE 00:25:04 42° E 00:28:27 10° S visible
29 Nov 8.3 12:26:54 10° SSW 12:30:22 39° W 12:33:52 10° NNW visible
29 Nov 9.5 23:56:56 10° NE 23:59:33 19° E 00:02:08 10° SE visible
30 Nov 6.7 12:01:15 10° SSE 12:04:56 88° ENE 12:08:40 10° N visible
